{"data":{"norad_id":59727,"intl_designator":"2024-088V","name":"STARLINK-31827","alt_names":[],"object_type":"PAYLOAD","status":"ACTIVE","operator":null,"country":"US","launch_date":"2024-05-10","launch_site_code":"AFWTR","launch_vehicle":null,"mission":null,"orbit_class":"UNKNOWN","rcs_meters":null,"size_class":null,"mass_kg":null,"dimensions":null,"purposes":["comms"],"wikipedia_slug":null,"has_3d_model":false,"image_url":null,"decayed_at":null,"tle_current":{"epoch":"2026-09-21T09:56:32.327520Z","epoch_age_seconds":92381,"freshness":"FRESH","line1":"1 59727U 24088V   26264.41426305  .00000849  00000+0  39125-4 0  9991","line2":"2 59727  53.1622 309.7146 0001245  73.2425 286.8713 15.31699610133784","mean_motion":15.3169961,"eccentricity":0.0001245,"inclination_deg":53.1622,"raan_deg":309.7146,"arg_perigee_deg":73.2425,"mean_anomaly_deg":286.8713,"bstar":3.9125e-5,"rev_number":13378,"period_min":94.013211898644,"perigee_km":469.88847246495,"apogee_km":471.59384312625,"semimajor_km":6848.8781577956,"source":"CELESTRAK","updated_at":"2026-09-22T09:00:49.061428Z"}}}